Location: La Sioule Rivi�re
(46.3664°N, 3.3197°E)
Time: 12:46:03
(UTC+00:00)

Lacrosse 5 - Pass Details

Date: 29 October 2020
Orbit: 716 x 723 km, 57.0° (Epoch: 06 November)

Event Time Altitude Azimuth Distance (km) Brightness Sun altitude
Rises 18:11:33 0° 300° (WNW) 3,124 6.2 -17.0°
Reaches altitude 10° 18:14:17 10° 313° (NW) 2,203 5.0 -17.5°
Maximum altitude 18:18:33 26° 11° (N) 1,385 3.2 -18.2°
Enters shadow 18:20:12 22° 41° (NE) 1,535 3.2 -18.5°
